Simultaneous Nadir Overpasses (SNOs) Predictions

Prediction of SNOs between AQUA and NOAA-19 Satellite Orbit:

Table of predicted SNOs for the next 14.0 days since TLE Epoch: 12/7/2018
Index Date (AQUA) Time (AQUA) Lat,Lon (AQUA) SZA (AQUA ) Date (NOAA-19) Time (NOAA-19) Lat,Lon (NOAA-19) SZA (NOAA-19 ) Distance(km) Time Diff (sec)
1 12/08/2018 07:06:35 80.64, 36.64 104.88 12/08/2018 07:06:25 80.63, 36.75 104.87 2.58 10
2 12/10/2018 12:40:18 -80.63, 133.38 74.91 12/10/2018 12:39:51 -80.62, 133.23 74.89 2.91 27
3 12/10/2018 13:29:45 80.63, -59.05 105.11 12/10/2018 13:30:55 80.64, -58.97 105.08 1.55 70
4 12/12/2018 18:14:02 80.63,-130.06 105.30 12/12/2018 18:13:26 80.62,-129.93 105.29 2.48 36
5 12/12/2018 19:03:29 -80.65, 37.33 74.67 12/12/2018 19:04:21 -80.63, 37.46 74.71 3.47 52
6 12/14/2018 23:47:45 -80.62, -33.40 74.56 12/14/2018 23:46:52 -80.61, -33.50 74.54 2.08 53
7 12/15/2018 00:37:12 80.62, 134.20 105.45 12/15/2018 00:37:56 80.63, 134.30 105.44 2.20 44
8 12/17/2018 05:21:29 80.62, 63.13 105.57 12/17/2018 05:20:27 80.62, 63.29 105.58 3.04 62
9 12/17/2018 06:10:55 -80.62,-129.17 74.44 12/17/2018 06:11:22 -80.62,-129.27 74.43 1.92 27
10 12/19/2018 11:44:39 80.62, -32.66 105.66 12/19/2018 11:44:57 80.62, -32.53 105.65 2.40 18




NCC Satellite Simultaneous Nadir Overpasses (SNOs) Prediction Service
